Vorticity
13 24 -4 11 5 9 14 5 8 10 6 5 5 5 8 8 5 6 6 6 7 8 7 6 6 6 4 2 3 4 8 10 9 7 3 -1 -1 1 3 4 5 5 5
24 12 8 23 4 20 -9 34 1 11 5 4 5 5 4 6 7 7 7 8 7 7 5 5 6 5 3 4 5 5 6 8 7 4 1 -1 0 3 5 6 5 4 2
13 14 28 18 -7 4 6 14 18 6 4 4 2 6 3 6 7 7 8 6 6 6 7 6 6 4 4 4 4 5 6 6 5 4 4 4 6 7 7 6 5 3 3
9 -2 -17 22 16 9 -16 12 17 6 4 4 4 4 4 8 5 8 7 7 5 6 7 7 6 4 4 4 3 4 5 6 8 8 8 7 8 7 6 4 3 3 3
14 -2 -0 17 12 23 5 10 3 7 6 4 2 1 4 7 5 9 7 5 4 5 7 7 6 5 6 4 6 6 7 8 7 7 9 7 6 5 3 3 3 3 4
-6 -16 17 16 29 -13 5 15 3 7 6 4 1 3 3 6 5 5 6 5 5 7 7 6 8 7 7 8 8 9 8 8 8 6 5 4 4 3 3 3 2 3 2
7 10 13 20 3 24 -1 15 8 9 2 -0 5 3 2 6 4 4 5 5 7 6 8 8 9 8 8 8 7 8 11 9 6 5 6 5 5 4 3 3 2 4 3
25 18 22 38 32 14 20 15 8 5 3 -1 4 3 3 4 2 4 4 5 7 7 8 8 6 6 9 10 10 9 8 7 6 6 6 5 4 4 3 3 3 3 3
36 34 42 6 16 16 0 8 6 3 5 -2 6 4 0 1 6 3 3 7 7 6 7 -11 -20 14 8 9 9 8 7 6 7 5 3 4 4 3 2 3 2 5 7
24 32 17 26 20 -3 20 12 3 6 5 3 6 2 2 4 1 -1 -2 6 -1 -2 13 -14 12 5 5 4 4 5 3 4 5 4 6 0 3 2 2 2 5 5 11
20 12 25 13 45 -9 35 3 3 2 2 6 5 5 3 2 -1 8 14 10 -6 15 3 7 12 2 12 10 14 2 1 2 2 1 5 3 1 -0 -0 5 -1 14 -6
3 26 12 14 19 -15 16 3 3 4 6 8 6 5 3 4 4 6 7 2 8 8 -4 1 25 7 5 -6 1 4 1 2 3 3 3 1 1 1 -1 5 3 6 14
8 0 37 17 14 37 1 1 3 6 6 5 5 4 3 3 2 1 5 9 9 7 -10 -30 8 -21 -7 8 28 8 -2 -2 5 4 2 2 1 1 0 4 3 10 4
13 8 -1 30 23 3 -5 1 7 6 5 4 3 4 4 5 3 2 2 4 -4 -3 -8 24 6 35 -12 12 2 5 14 30 23 12 9 7 6 5 11 4 3 -4 28
11 11 15 -10 35 18 34 17 -1 7 6 4 4 4 4 6 4 3 0 5 2 23 29 -8 -4 23 14 6 -4 5 1 17 -2 12 2 -3 2 6 8 7 11 -3 12
6 10 16 11 4 4 -4 5 4 4 6 5 8 3 3 4 -0 -3 4 10 -7 11 6 4 24 8 4 -1 -0 1 5 4 4 13 11 16 -1 5 -4 0 13 15 17
11 11 11 13 13 28 2 -1 21 2 8 4 5 -5 27 -1 1 15 -1 6 31 5 -7 45 7 15 4 9 -2 4 6 14 17 -4 -11 19 5 6 -1 16 7 -3 9
20 12 1 8 30 22 -2 6 18 -2 6 6 4 14 14 13 16 26 21 9 17 12 33 9 3 4 17 -4 1 13 11 9 -8 28 -8 -6 3 -3 9 -12 2 9 6
21 8 3 15 37 28 42 7 35 16 8 21 7 -8 29 17 24 -10 -18 20 28 12 12 17 8 4 -9 11 -5 -4 26 -4 22 -5 8 -3 6 4 -3 18 11 4 6
18 9 13 1 25 3 38 -6 -1 25 29 26 11 23 15 10 11 24 26 17 19 7 4 5 5 -5 -4 10 6 8 10 7 -0 -7 11 5 6 5 9 9 4 6 8
13 8 12 15 23 10 12 -6 49 1 41 47 13 4 8 8 7 15 12 14 12 3 -5 -4 -3 6 4 8 8 6 9 10 13 3 10 21 11 9 8 8 9 8 6
10 12 10 23 -1 8 24 20 -5 20 14 -12 11 -4 -4 1 12 15 3 -0 1 6 2 -0 11 -4 13 1 11 1 7 4 9 13 14 12 11 7 10 9 13 11 11
7 9 9 13 21 21 -5 3 27 -9 -15 12 1 -1 6 -13 7 11 1 -3 2 15 9 3 4 11 1 2 3 -2 15 10 15 14 8 7 9 11 10 12 14 14 14
5 5 7 6 8 15 11 11 9 -11 18 16 4 2 6 3 1 -1 5 10 8 5 0 1 5 6 0 7 11 16 3 11 12 10 8 8 10 11 11 13 16 15 12
5 5 4 5 7 8 8 8 4 5 2 -1 2 8 8 7 8 8 10 -1 2 4 11 -3 10 -2 12 34 28 25 11 7 9 7 7 10 11 11 9 10 12 13 14
6 6 6 6 6 6 6 7 7 8 7 9 8 6 2 19 -0 15 5 2 1 -2 5 8 21 24 16 18 12 9 9 7 9 11 8 9 13 12 11 8 17 14 15
Height
3102 3103 3106 3109 3114 3118 3123 3125 3131 3135 3139 3144 3147 3150 3153 3155 3156 3156 3160 3162 3165 3168 3170 3169 3171 3172 3173 3174 3175 3176 3176 3176 3178 3179 3180 3182 3182 3183 3183 3184 3184 3184 3184
3096 3098 3101 3103 3108 3113 3117 3123 3129 3133 3137 3141 3145 3147 3150 3153 3154 3156 3159 3161 3165 3167 3167 3167 3169 3170 3172 3173 3174 3175 3177 3177 3178 3180 3180 3180 3181 3181 3182 3182 3183 3183 3183
3089 3093 3095 3097 3101 3107 3112 3118 3125 3130 3134 3138 3142 3145 3147 3150 3151 3155 3158 3160 3163 3164 3164 3166 3168 3169 3171 3172 3172 3174 3176 3175 3176 3177 3178 3179 3179 3180 3180 3180 3180 3180 3180
3083 3086 3087 3090 3095 3102 3107 3114 3121 3125 3131 3135 3139 3142 3145 3148 3148 3153 3156 3158 3160 3161 3163 3165 3167 3168 3169 3170 3171 3173 3174 3173 3174 3175 3175 3177 3178 3178 3178 3178 3178 3177 3176
3076 3079 3081 3082 3089 3096 3102 3108 3115 3122 3128 3132 3136 3140 3142 3144 3145 3151 3153 3156 3158 3159 3161 3163 3165 3167 3167 3167 3169 3171 3171 3171 3172 3172 3174 3175 3175 3175 3175 3175 3174 3173 3172
3069 3070 3071 3074 3082 3088 3096 3102 3110 3118 3125 3129 3132 3136 3137 3141 3142 3147 3150 3154 3155 3157 3159 3160 3162 3163 3164 3165 3167 3168 3168 3168 3169 3170 3171 3171 3172 3172 3172 3171 3170 3170 3168
3060 3061 3060 3068 3074 3081 3090 3096 3104 3113 3117 3123 3128 3130 3135 3138 3139 3144 3149 3151 3153 3156 3157 3158 3162 3162 3161 3162 3163 3164 3166 3167 3167 3167 3168 3168 3168 3168 3167 3167 3166 3165 3164
3051 3050 3051 3058 3067 3075 3081 3090 3100 3106 3112 3118 3123 3129 3131 3136 3137 3142 3147 3149 3152 3153 3155 3157 3159 3160 3159 3160 3162 3163 3164 3164 3164 3164 3164 3164 3164 3163 3162 3161 3160 3159 3158
3043 3042 3046 3053 3060 3068 3076 3086 3093 3099 3108 3113 3120 3124 3126 3130 3136 3140 3144 3146 3148 3151 3152 3152 3154 3158 3157 3157 3158 3160 3160 3161 3161 3161 3160 3159 3159 3158 3157 3156 3154 3153 3152
3040 3037 3042 3048 3056 3065 3072 3080 3089 3097 3105 3110 3114 3118 3124 3130 3132 3137 3142 3144 3145 3147 3146 3146 3151 3155 3154 3154 3154 3155 3155 3156 3156 3155 3155 3154 3152 3151 3150 3150 3149 3148 3146
3037 3040 3041 3047 3052 3060 3068 3077 3084 3090 3099 3105 3110 3115 3119 3124 3129 3133 3138 3141 3142 3143 3142 3144 3148 3149 3149 3149 3149 3150 3150 3150 3149 3148 3147 3146 3144 3143 3143 3143 3142 3142 3140
3037 3038 3041 3044 3050 3057 3065 3073 3082 3088 3095 3101 3106 3111 3116 3121 3126 3129 3133 3135 3137 3138 3139 3141 3143 3144 3144 3144 3144 3144 3143 3142 3140 3139 3140 3140 3140 3138 3137 3136 3135 3134 3132
3036 3039 3041 3044 3047 3052 3062 3070 3077 3083 3089 3096 3101 3106 3111 3115 3120 3123 3126 3129 3131 3131 3135 3137 3139 3138 3138 3137 3137 3136 3134 3135 3136 3136 3135 3135 3134 3132 3130 3128 3126 3124 3122
3034 3037 3040 3043 3046 3051 3056 3065 3071 3078 3083 3089 3095 3100 3105 3109 3112 3115 3119 3121 3121 3125 3130 3131 3133 3131 3130 3130 3130 3129 3129 3128 3128 3128 3127 3126 3125 3124 3122 3119 3117 3114 3110
3030 3034 3037 3041 3045 3049 3052 3058 3065 3072 3077 3082 3088 3093 3098 3102 3105 3108 3110 3112 3115 3118 3121 3123 3125 3124 3123 3123 3123 3122 3120 3120 3118 3117 3117 3117 3115 3113 3111 3108 3104 3102 3099
3026 3029 3033 3036 3038 3043 3048 3054 3059 3066 3071 3075 3080 3085 3089 3091 3094 3098 3102 3105 3106 3110 3113 3115 3115 3116 3116 3116 3116 3114 3113 3111 3110 3110 3108 3107 3105 3103 3100 3096 3094 3091 3086
3021 3023 3026 3029 3029 3033 3039 3046 3051 3057 3062 3067 3072 3075 3076 3080 3085 3090 3095 3098 3099 3102 3104 3107 3107 3108 3108 3108 3107 3106 3105 3103 3102 3101 3099 3096 3094 3092 3089 3084 3081 3078 3074
3017 3020 3021 3022 3021 3022 3030 3036 3041 3048 3053 3057 3062 3066 3070 3074 3079 3083 3087 3091 3093 3095 3096 3097 3099 3100 3100 3100 3099 3098 3096 3093 3092 3089 3087 3085 3082 3079 3075 3071 3067 3063 3060
3012 3015 3015 3014 3013 3015 3020 3027 3033 3040 3044 3050 3055 3060 3063 3069 3073 3076 3081 3084 3086 3087 3089 3090 3092 3092 3092 3092 3091 3090 3087 3084 3081 3079 3077 3074 3070 3066 3063 3058 3053 3049 3044
3009 3011 3011 3010 3009 3010 3015 3021 3025 3030 3036 3042 3048 3053 3059 3063 3068 3072 3076 3077 3080 3082 3083 3085 3085 3085 3086 3085 3083 3080 3078 3075 3072 3069 3065 3061 3057 3053 3048 3043 3038 3033 3027
3006 3008 3009 3009 3009 3010 3014 3018 3021 3026 3031 3037 3044 3048 3053 3058 3063 3066 3069 3071 3073 3076 3076 3077 3078 3077 3077 3074 3073 3070 3069 3064 3061 3058 3053 3048 3043 3039 3035 3030 3024 3017 3011
3005 3006 3007 3008 3009 3011 3012 3017 3018 3024 3028 3034 3039 3044 3050 3054 3057 3060 3063 3066 3067 3069 3069 3070 3070 3068 3066 3064 3062 3059 3056 3053 3047 3044 3041 3035 3030 3025 3021 3016 3009 3003 2995
3004 3006 3007 3008 3009 3011 3013 3016 3019 3025 3030 3033 3037 3043 3046 3049 3053 3056 3058 3060 3061 3062 3062 3062 3060 3059 3056 3052 3049 3046 3042 3039 3035 3032 3029 3024 3019 3013 3008 3001 2994 2987 2978
3001 3004 3006 3008 3010 3012 3015 3017 3021 3023 3027 3032 3036 3039 3042 3045 3047 3050 3051 3053 3054 3054 3053 3052 3050 3046 3044 3040 3037 3033 3028 3025 3021 3018 3014 3009 3002 2997 2992 2986 2980 2971 2961
2997 3000 3003 3006 3008 3011 3014 3017 3020 3023 3027 3030 3032 3034 3037 3039 3041 3043 3044 3044 3044 3043 3041 3040 3037 3035 3031 3028 3025 3022 3019 3015 3011 3006 3001 2995 2988 2981 2974 2968 2960 2950 2939
2993 2997 3000 3003 3006 3009 3012 3014 3017 3020 3022 3025 3027 3029 3031 3033 3034 3035 3035 3035 3034 3033 3030 3027 3025 3021 3020 3018 3015 3011 3008 3006 3001 2997 2991 2986 2978 2968 2959 2949 2940 2930 2922